Printer-friendly version

IAU Minor Planet Center

Minor Planet Center

MPEC 2004-Q68 : COMET C/2004 Q1 (TUCKER)

The following Minor Planet Electronic Circular may be linked-to from your own Web pages, but must not otherwise be redistributed electronically.


Read MPEC 2004-Q67 Read MPEC 2004-Q69


M.P.E.C. 2004-Q68                                Issued 2004 Aug. 30, 14:40 UT

     The Minor Planet Electronic Circulars contain information on unusual
         minor planets and routine data on comets.  They are published
   on behalf of Commission 20 of the International Astronomical Union by the
          Minor Planet Center, Smithsonian Astrophysical Observatory,
                          Cambridge, MA 02138, U.S.A.

                  Supported in part by the Brinson Foundation
             Prepared using the Tamkin Foundation Computer Network

                              MPC@CFA.HARVARD.EDU
          URL http://cfa-www.harvard.edu/iau/mpc.html  ISSN 1523-6714

                           COMET C/2004 Q1 (TUCKER)

Observations:
    CK04Q010  C2004 08 25.42176 02 42 12.34 +02 43 22.6          15.3 T EQ068H06
    CK04Q010  C2004 08 25.42575 02 42 12.31 +02 43 27.0          15.3 T EQ068H06
    CK04Q010  C2004 08 25.43806 02 42 12.20 +02 43 40.1          15.4 T EQ068H06
    CK04Q010  C2004 08 25.59127 02 42 11.30 +02 46 29.8          15.2 N EQ068474
    CK04Q010  C2004 08 25.59694 02 42 11.26 +02 46 35.9          15.1 N EQ068474
    CK04Q010  C2004 08 25.60065 02 42 11.24 +02 46 39.9          15.2 N EQ068474
    CK04Q010  C2004 08 25.60413 02 42 11.21 +02 46 43.6          15.1 N EQ068474
    CK04Q010  C2004 08 25.61547 02 42 11.12 +02 46 55.7          15.1 N EQ068474
    CK04Q010  C2004 08 26.06115 02 42 07.91 +02 54 48.0          14.2 N EQ068J77
    CK04Q010  C2004 08 26.06618 02 42 07.89 +02 54 52.5          14.2 N EQ068J77
    CK04Q010  C2004 08 26.07049 02 42 07.88 +02 54 57.8          14.3 N EQ068J77
    CK04Q010  C2004 08 26.32975 02 42 05.92 +02 59 38.4          15.0 N EQ068H41
    CK04Q010  C2004 08 26.33109 02 42 05.90 +02 59 39.9          15.1 N EQ068H41
    CK04Q010  C2004 08 26.33272 02 42 05.90 +02 59 41.7          15.1 N EQ068H41
    CK04Q010  C2004 08 26.33372 02 42 05.88 +02 59 42.9          15.1 N EQ068H41
    CK04Q010  C2004 08 26.33506 02 42 05.89 +02 59 44.5          12.5 T EQ068H41
    CK04Q010  C2004 08 26.33653 02 42 05.85 +02 59 45.5          12.5 T EQ068H41
    CK04Q010  C2004 08 26.33856 02 42 05.84 +02 59 47.8          12.4 T EQ068H41
    CK04Q010   2004 08 26.66458 02 42 03.13 +03 05 42.6          14.5 T EQ068372
    CK04Q010   2004 08 26.67153 02 42 03.02 +03 05 50.2                 EQ068372
    CK04Q010   2004 08 26.68160 02 42 03.01 +03 06 00.8          14.4 T EQ068372
    CK04Q010   2004 08 26.73993 02 42 02.38 +03 07 03.2                 EQ068372
    CK04Q010  C2004 08 27.95719 02 41 50.15 +03 29 20.4          15.5 N EQ068151
    CK04Q010  C2004 08 27.95956 02 41 50.09 +03 29 23.8          15.3 N EQ068151
    CK04Q010  C2004 08 27.96225 02 41 50.07 +03 29 26.1          15.3 N EQ068151
    CK04Q010  C2004 08 28.06288 02 41 48.86 +03 31 17.5          15.2 N EQ068J95
    CK04Q010  C2004 08 28.06617 02 41 48.83 +03 31 21.0          15.3 N EQ068J95
    CK04Q010  C2004 08 28.06949 02 41 48.78 +03 31 24.8          15.2 N EQ068J95
    CK04Q010  C2004 08 28.08033 02 41 48.53 +03 31 36.4          13.9 N EQ068235
    CK04Q010  C2004 08 28.31580 02 41 45.90 +03 36 00.1          15.1 N EQ068850
    CK04Q010  C2004 08 28.34566 02 41 45.46 +03 36 33.0          15.2 N EQ068850
    CK04Q010  C2004 08 28.37579 02 41 45.18 +03 37 06.5          15.6 N EQ068850
    CK04Q010  C2004 08 28.38994 02 41 44.93 +03 37 23.0          14.7 T EQ068683
    CK04Q010  C2004 08 28.39612 02 41 44.86 +03 37 29.9          14.8 T EQ068683
    CK04Q010  C2004 08 28.40266 02 41 44.76 +03 37 37.2          14.8 T EQ068683
    CK04Q010  C2004 08 28.41044 02 41 44.65 +03 37 45.7          14.8 T EQ068683
    CK04Q010  C2004 08 29.03231 02 41 36.65 +03 49 22.3          14.6 N EQ068213
    CK04Q010  C2004 08 29.03407 02 41 36.64 +03 49 23.9          14.5 N EQ068213
    CK04Q010  C2004 08 29.03492 02 41 36.61 +03 49 25.2          14.5 N EQ068213
    CK04Q010  C2004 08 29.03581 02 41 36.63 +03 49 26.2          14.5 N EQ068213
    CK04Q010  C2004 08 29.48712 02 41 30.00 +03 57 57.6          14.7 T EQ068683
    CK04Q010  C2004 08 29.49280 02 41 29.90 +03 58 03.9          14.7 T EQ068683
    CK04Q010  C2004 08 29.49736 02 41 29.82 +03 58 09.2          14.7 T EQ068683
    CK04Q010  C2004 08 30.35359 02 41 16.69 +04 14 27.2          14.5 T EQ068673
    CK04Q010  C2004 08 30.35961 02 41 16.57 +04 14 33.7                 EQ068673
    CK04Q010  C2004 08 30.36574 02 41 16.46 +04 14 40.6                 EQ068673
    CK04Q010  C2004 08 30.37558 02 41 16.28 +04 14 52.3                 EQ068673

Observer details:
151 Eschenberg Observatory, Winterthur.  Observer M. Griesser.  0.40-m f/5.8
    Hypergraph + CCD.
213 Observatorio Montcabre.  Observer R. Naves.  Measurer M. Campas.  0.30-m
    f/6.6 Schmidt-Cassegrain + CCD.
235 CAST Observatory, Talmassons.  Observers R. Ligustri, R. Turchetti,
    F. Romanello.  Measurer R. Ligustri.  0.35-m f/5 reflector + CCD.
372 Geisei.  Observer T. Seki.  0.60-m f/3.5 reflector.
474 Mount John Observatory, Lake Tekapo.  Observer A. C. Gilmore.  Measurer
    P. M. Kilmartin.  1.0-m f/7.7 reflector + CCD.
673 Table Mountain Observatory, Wrightwood.  Observer J. Young.  0.6-m
    reflector + CCD.
683 Goodricke-Pigott Observatory, Tucson.  Observer R. Tucker.  0.35-m f/11
    Schmidt-Cassegrain + CCD.
850 Cordell-Lorenz Observatory, Sewanee.  Observer D. T. Durig.  0.3-m f/5.75
    Schmidt-Cassegrain + CCD.
H06 New Mexico Skies Observatory.  Observer J. Sue.  0.3-m reflector + CCD.
H41 Petit Jean Mountain.  Observer P. C. Sherrod.  0.41-m f/3.3
    Schmidt-Cassegrain + CCD.
J77 Golden Hill Observatory, Stourton Caundle.  Observer R. Miles.  0.06-m
    f/5.9 refractor + CCD.
J95 Great Shefford.  Observer P. Birtwhistle.  0.30-m f/6.3 Schmidt-Cassegrain
    + CCD.

Orbital elements:
    C/2004 Q1 (Tucker)
T 2004 Dec. 7.938 TT                                    MPC
q   2.03650              (2000.0)            P               Q
                   Peri.   33.718       +0.654746       -0.687944
                   Node    22.107       +0.365234       -0.074727
e   1.0            Incl.   56.307       +0.661749       +0.721907
From 94 observations 2004 Aug. 22-30.

Ephemeris:
    C/2004 Q1 (Tucker)
Date    TT    R. A. (2000) Decl.     Delta      r     Elong.  Phase   m1    m2
2004 08 23    02 42.36   +02 01.1    1.848    2.400   110.7    23.2  14.6
2004 09 02    02 40.41   +05 06.3    1.667    2.341   120.0    21.9  14.3
2004 09 12    02 34.52   +08 42.8    1.503    2.285   130.2    19.7  14.0
2004 09 22    02 23.68   +12 55.6    1.361    2.235   141.4    16.3  13.7
2004 10 02    02 07.10   +17 43.5    1.249    2.189   153.0    12.0  13.4
2004 10 12    01 44.54   +22 52.0    1.175    2.148   162.5     8.1  13.2
2004 10 22    01 17.08   +27 52.2    1.145    2.113   161.8     8.5  13.0

Brian G. Marsden             (C) Copyright 2004 MPC           M.P.E.C. 2004-Q68

Read MPEC 2004-Q67 Read MPEC 2004-Q69


Our Web policy. Index to the CBAT/MPC/ICQ pages.


Valid HTML 4.01!